{"data":{"norad_id":36106,"epoch":"2026-05-25T02:26:15.328320Z","epoch_age_seconds":66412,"freshness":"FRESH","line1":"1 36106U 09067A   26145.10156630 -.00000187  00000+0  00000+0 0  9993","line2":"2 36106   0.0341  84.3109 0002225 335.7199 304.3726  1.00271763 40993","mean_motion":1.00271763,"eccentricity":0.0002225,"inclination_deg":0.0341,"raan_deg":84.3109,"arg_perigee_deg":335.7199,"mean_anomaly_deg":304.3726,"bstar":0,"rev_number":4099,"period_min":1436.0972191144,"perigee_km":35777.219474357,"apogee_km":35795.982782824,"semimajor_km":42164.73812859,"source":"CELESTRAK","updated_at":"2026-05-25T13:38:14.328712Z"}}